LEMUR-2-CHRISTINAHOLT (43882 NORAD) Tracking and Keplerian Element Data

This shows tracking and keplerian element data for the satellite.

Feedback or suggestion? Click here.




ElementValue
Catalog43882
NameLEMUR-2-CHRISTINAHOLT
Epoch Orbit370
Epoch Day20.95596582
Epoch Year2019
RAAN291.0679
Inclination97.7281
Eccentricity0.0012288
Argument of Perigee154.8396
Mean Anonmoly205.3427
Mean Motion14.96324412
Decay Rate1.153E-05
L11 43882U 18111G 19020.95596582 .00001153 00000-0 10694-3 0 9991
L22 43882 97.7281 291.0679 0012288 154.8396 205.3427 14.96324412 3701

Live tracking and technical data element details for LEMUR-2-CHRISTINAHOLT (NORAD 43882). LEMUR-2-CHRISTINAHOLT can be tracked NOW for your location showing map with azimuth and elevation plus other details from your city location.

Track the satellite on the map from your city or location and see movement details for azimuth, elevation, latitude, longitude, range, height, and movement on the map or in text.







IsCatalogInMostPopularTable: catalog: 43882, numindb: 19
Update: records affected: 1



GetName: 43882 LEMUR-2-CHRISTINAHOLT

Hit Count: updated at: Wed, 23 Jan 2019 03:01:01 GMT